DAL69 KMSP-KPBI

Flight info

Callsign DAL69
Flight time 2h 48m
Altitude 39000
Route RST1 ALO STL J151 GETME VLKNN MGMRY ACORI VUUDU1
Aircraft B78X/H-SDE1E2E3FGHIJ2J3J4J5M1RWXY/CB1D1

Departure

Time 2026-05-07 14:59
Airport Minneapolis–Saint Paul International Airport / Wold–Chamberlain Field (KMSP)

Arrival

Time 2026-05-07 17:47
Airport Palm Beach International Airport (KPBI)
Time Latitude Longitude Altitude Speed Heading
2026-05-07 14:46 44.88124 -93.21257 854 ft 0 kts 32°
2026-05-07 14:51 44.88117 -93.21264 854 ft 2 kts 32°
2026-05-07 14:52 44.88102 -93.21278 854 ft 3 kts 38°
2026-05-07 14:52 44.88087 -93.21297 854 ft 3 kts 48°
2026-05-07 14:52 44.88075 -93.21320 854 ft 3 kts 59°
2026-05-07 14:52 44.88066 -93.21345 854 ft 3 kts 70°
2026-05-07 14:53 44.88061 -93.21373 854 ft 3 kts 81°
2026-05-07 14:53 44.88060 -93.21376 854 ft 0 kts 82°
2026-05-07 14:54 44.88061 -93.21369 854 ft 3 kts 88°
2026-05-07 14:55 44.88016 -93.21296 854 ft 17 kts 137°
2026-05-07 14:55 44.87934 -93.21163 854 ft 19 kts 123°
2026-05-07 14:55 44.87872 -93.21024 854 ft 17 kts 122°
2026-05-07 14:55 44.87810 -93.20885 854 ft 17 kts 122°
2026-05-07 14:56 44.87747 -93.20739 854 ft 18 kts 121°
2026-05-07 14:56 44.87682 -93.20589 854 ft 18 kts 121°
2026-05-07 14:56 44.87618 -93.20438 854 ft 18 kts 121°
2026-05-07 14:56 44.87551 -93.20281 854 ft 19 kts 121°
2026-05-07 14:57 44.87487 -93.20135 854 ft 13 kts 122°
2026-05-07 14:57 44.87403 -93.20093 854 ft 17 kts 202°
2026-05-07 14:57 44.87381 -93.20198 854 ft 16 kts 297°
2026-05-07 14:57 44.87410 -93.20256 854 ft 0 kts 304°
2026-05-07 14:58 44.87411 -93.20257 854 ft 1 kts 304°
2026-05-07 14:58 44.87525 -93.20519 854 ft 77 kts 300°
2026-05-07 14:58 44.87965 -93.21534 855 ft 161 kts 301°
2026-05-07 14:59 44.88603 -93.23000 1511 ft 173 kts 301°
2026-05-07 14:59 44.89158 -93.24491 2608 ft 175 kts 294°
2026-05-07 14:59 44.89172 -93.26280 3153 ft 195 kts 266°
2026-05-07 14:59 44.88460 -93.27969 3698 ft 212 kts 234°
2026-05-07 15:00 44.87139 -93.29004 4305 ft 226 kts 204°
2026-05-07 15:00 44.85517 -93.29005 4852 ft 242 kts 175°
2026-05-07 15:00 44.83958 -93.28048 5503 ft 249 kts 157°
2026-05-07 15:00 44.82416 -93.26904 6189 ft 253 kts 154°
2026-05-07 15:01 44.81175 -93.25986 6671 ft 257 kts 155°
2026-05-07 15:01 44.80239 -93.25307 7033 ft 260 kts 155°
2026-05-07 15:01 44.78568 -93.24137 7645 ft 264 kts 156°
2026-05-07 15:01 44.76903 -93.23028 8279 ft 266 kts 158°
2026-05-07 15:02 44.75210 -93.21951 8895 ft 269 kts 158°
2026-05-07 15:02 44.73487 -93.20848 9350 ft 278 kts 160°
2026-05-07 15:02 44.71614 -93.20000 9860 ft 286 kts 167°
2026-05-07 15:02 44.69648 -93.19395 10389 ft 295 kts 173°
2026-05-07 15:03 44.67586 -93.18946 10758 ft 309 kts 176°
2026-05-07 15:03 44.65415 -93.18582 11217 ft 320 kts 178°
2026-05-07 15:03 44.63208 -93.18064 11889 ft 326 kts 171°
2026-05-07 15:03 44.61128 -93.16856 12817 ft 320 kts 160°
2026-05-07 15:04 44.59170 -93.15501 13762 ft 311 kts 157°
2026-05-07 15:04 44.57208 -93.14105 14465 ft 310 kts 157°
2026-05-07 15:04 44.55325 -93.12772 15065 ft 310 kts 157°
2026-05-07 15:04 44.53357 -93.11388 15615 ft 312 kts 157°
2026-05-07 15:05 44.51414 -93.10028 16113 ft 315 kts 156°
2026-05-07 15:05 44.49436 -93.08649 16565 ft 319 kts 156°
2026-05-07 15:05 44.47449 -93.07266 17023 ft 322 kts 156°
2026-05-07 15:05 44.45449 -93.05877 17507 ft 323 kts 156°
2026-05-07 15:06 44.43409 -93.04462 17983 ft 325 kts 156°
2026-05-07 15:06 44.41395 -93.03065 18379 ft 330 kts 156°
2026-05-07 15:06 44.39266 -93.01586 18499 ft 344 kts 156°
2026-05-07 15:06 44.37102 -93.00085 18660 ft 357 kts 156°
2026-05-07 15:07 44.34844 -92.98519 18856 ft 368 kts 156°
2026-05-07 15:07 44.32531 -92.96914 19167 ft 375 kts 156°
2026-05-07 15:07 44.30173 -92.95278 19568 ft 380 kts 156°
2026-05-07 15:07 44.27765 -92.93611 20032 ft 382 kts 156°
2026-05-07 15:08 44.25413 -92.91985 20477 ft 385 kts 156°
2026-05-07 15:08 44.23004 -92.90319 20949 ft 386 kts 156°
2026-05-07 15:08 44.20628 -92.88677 21403 ft 388 kts 156°
2026-05-07 15:08 44.18176 -92.86984 21845 ft 390 kts 156°
2026-05-07 15:09 44.15756 -92.85315 22248 ft 393 kts 156°
2026-05-07 15:09 44.13258 -92.83594 22659 ft 396 kts 156°
2026-05-07 15:09 44.10784 -92.81894 23085 ft 398 kts 156°
2026-05-07 15:09 44.08289 -92.80179 23387 ft 404 kts 156°
2026-05-07 15:10 44.05727 -92.78427 23441 ft 416 kts 155°
2026-05-07 15:10 44.03131 -92.76648 23889 ft 417 kts 155°
2026-05-07 15:10 44.00533 -92.74867 24266 ft 420 kts 155°
2026-05-07 15:10 43.97888 -92.73053 24617 ft 424 kts 156°
2026-05-07 15:11 43.95211 -92.71220 24824 ft 431 kts 156°
2026-05-07 15:11 43.92551 -92.69404 25221 ft 433 kts 156°
2026-05-07 15:11 43.89806 -92.67533 25560 ft 437 kts 156°
2026-05-07 15:11 43.87108 -92.65695 25998 ft 437 kts 156°
2026-05-07 15:12 43.84344 -92.63814 26327 ft 440 kts 156°
2026-05-07 15:12 43.81552 -92.61999 26663 ft 442 kts 160°
2026-05-07 15:12 43.78657 -92.60764 26918 ft 442 kts 169°
2026-05-07 15:12 43.75663 -92.59835 27312 ft 442 kts 172°
2026-05-07 15:13 43.72625 -92.59053 27588 ft 444 kts 175°
2026-05-07 15:13 43.69577 -92.58407 27964 ft 445 kts 176°
2026-05-07 15:13 43.66489 -92.57835 28192 ft 449 kts 178°
2026-05-07 15:13 43.63387 -92.57304 28562 ft 450 kts 178°
2026-05-07 15:14 43.60264 -92.56787 28876 ft 452 kts 179°
2026-05-07 15:14 43.57130 -92.56275 29187 ft 454 kts 179°
2026-05-07 15:14 43.53976 -92.55761 29480 ft 457 kts 179°
2026-05-07 15:14 43.50814 -92.55245 29771 ft 460 kts 179°
2026-05-07 15:15 43.47619 -92.54725 30072 ft 462 kts 179°
2026-05-07 15:15 43.44416 -92.54205 30333 ft 465 kts 179°
2026-05-07 15:15 43.41214 -92.53682 30621 ft 467 kts 179°
2026-05-07 15:15 43.37952 -92.53148 30942 ft 469 kts 180°
2026-05-07 15:16 43.34754 -92.52624 31268 ft 470 kts 180°
2026-05-07 15:16 43.31508 -92.52094 31550 ft 472 kts 180°
2026-05-07 15:16 43.28234 -92.51561 31812 ft 475 kts 180°
2026-05-07 15:16 43.24944 -92.51027 32099 ft 477 kts 180°
2026-05-07 15:17 43.21637 -92.50491 32360 ft 479 kts 180°
2026-05-07 15:17 43.18314 -92.49952 32654 ft 481 kts 180°
2026-05-07 15:17 43.14980 -92.49411 32943 ft 483 kts 180°
2026-05-07 15:17 43.11621 -92.48868 33210 ft 485 kts 181°
2026-05-07 15:18 43.08308 -92.48332 33495 ft 487 kts 181°
2026-05-07 15:18 43.04937 -92.47788 33786 ft 488 kts 181°
2026-05-07 15:18 43.01515 -92.47235 34075 ft 490 kts 181°
2026-05-07 15:18 42.98163 -92.46697 34319 ft 493 kts 181°
2026-05-07 15:19 42.94745 -92.46151 34554 ft 496 kts 181°
2026-05-07 15:19 42.91319 -92.45601 34800 ft 498 kts 181°
2026-05-07 15:19 42.87854 -92.45043 35112 ft 499 kts 181°
2026-05-07 15:19 42.84408 -92.44488 35425 ft 500 kts 181°
2026-05-07 15:20 42.80945 -92.43933 35665 ft 503 kts 181°
2026-05-07 15:20 42.77448 -92.43374 35874 ft 506 kts 181°
2026-05-07 15:20 42.73933 -92.42813 36074 ft 509 kts 181°
2026-05-07 15:20 42.70398 -92.42251 36312 ft 512 kts 181°
2026-05-07 15:21 42.66903 -92.41694 36592 ft 513 kts 181°
2026-05-07 15:21 42.63362 -92.41128 36839 ft 514 kts 181°
2026-05-07 15:21 42.56282 -92.39379 36932 ft 523 kts 172°
2026-05-07 15:22 42.52794 -92.37886 37130 ft 526 kts 168°
2026-05-07 15:22 42.49337 -92.36227 37423 ft 529 kts 167°
2026-05-07 15:22 42.45890 -92.34444 37738 ft 529 kts 165°
2026-05-07 15:22 42.42470 -92.32602 38038 ft 530 kts 165°
2026-05-07 15:23 42.39051 -92.30728 38385 ft 529 kts 164°
2026-05-07 15:23 42.35642 -92.28849 38681 ft 528 kts 165°
2026-05-07 15:23 42.32253 -92.26985 38889 ft 529 kts 164°
2026-05-07 15:23 42.28897 -92.25147 38947 ft 532 kts 165°
2026-05-07 15:24 42.23080 -92.21978 38964 ft 540 kts 165°
2026-05-07 15:24 42.16058 -92.18161 38967 ft 550 kts 164°
2026-05-07 15:25 42.08857 -92.14256 38948 ft 560 kts 164°
2026-05-07 15:25 42.01617 -92.10332 38965 ft 561 kts 164°
2026-05-07 15:26 41.94371 -92.06413 38961 ft 560 kts 164°
2026-05-07 15:26 41.87137 -92.02515 38953 ft 560 kts 164°
2026-05-07 15:27 41.79924 -91.98640 38967 ft 560 kts 164°
2026-05-07 15:27 41.72678 -91.94755 38961 ft 558 kts 165°
2026-05-07 15:28 41.65475 -91.90897 38975 ft 550 kts 165°
2026-05-07 15:28 41.58482 -91.87174 38973 ft 549 kts 165°
2026-05-07 15:29 41.51324 -91.83365 38993 ft 550 kts 165°
2026-05-07 15:29 41.44221 -91.79592 39006 ft 549 kts 165°
2026-05-07 15:30 41.37116 -91.75828 39013 ft 547 kts 165°
2026-05-07 15:30 41.30045 -91.72094 39014 ft 546 kts 166°
2026-05-07 15:31 41.22964 -91.68361 39026 ft 546 kts 166°
2026-05-07 15:31 41.15896 -91.64642 39014 ft 546 kts 166°
2026-05-07 15:32 41.08849 -91.60943 39020 ft 545 kts 166°
2026-05-07 15:32 41.01779 -91.57246 39032 ft 544 kts 166°
2026-05-07 15:33 40.94740 -91.53568 39025 ft 545 kts 166°
2026-05-07 15:33 40.87736 -91.49916 39033 ft 543 kts 167°
2026-05-07 15:34 40.80674 -91.46245 39027 ft 544 kts 167°
2026-05-07 15:34 40.73639 -91.42597 39017 ft 543 kts 167°
2026-05-07 15:35 40.66609 -91.38960 39019 ft 543 kts 167°
2026-05-07 15:35 40.59575 -91.35328 39023 ft 543 kts 167°
2026-05-07 15:36 40.52561 -91.31713 39022 ft 543 kts 167°
2026-05-07 15:36 40.45550 -91.28108 39034 ft 541 kts 167°
2026-05-07 15:37 40.38516 -91.24500 39027 ft 542 kts 167°
2026-05-07 15:37 40.31493 -91.20908 39036 ft 541 kts 167°
2026-05-07 15:38 40.24460 -91.17317 39048 ft 542 kts 167°
2026-05-07 15:38 40.17477 -91.13760 39053 ft 542 kts 167°
2026-05-07 15:39 40.10421 -91.10171 39068 ft 540 kts 168°
2026-05-07 15:39 40.03416 -91.06619 39069 ft 540 kts 168°
2026-05-07 15:40 39.96478 -91.03103 39065 ft 538 kts 168°
2026-05-07 15:40 39.89488 -90.99572 39078 ft 537 kts 168°
2026-05-07 15:41 39.82520 -90.96064 39082 ft 535 kts 169°
2026-05-07 15:41 39.75575 -90.92574 39084 ft 535 kts 169°
2026-05-07 15:42 39.68615 -90.89084 39099 ft 536 kts 169°
2026-05-07 15:42 39.61660 -90.85603 39100 ft 536 kts 169°
2026-05-07 15:43 39.54745 -90.82150 39090 ft 534 kts 169°
2026-05-07 15:43 39.47813 -90.78692 39104 ft 534 kts 169°
2026-05-07 15:44 39.40888 -90.75249 39100 ft 534 kts 169°
2026-05-07 15:44 39.33950 -90.71804 39102 ft 534 kts 169°
2026-05-07 15:45 39.27014 -90.68378 39109 ft 534 kts 169°
2026-05-07 15:45 39.20088 -90.64950 39118 ft 533 kts 169°
2026-05-07 15:46 39.09717 -90.59832 39120 ft 532 kts 169°
2026-05-07 15:47 39.02811 -90.56439 39131 ft 532 kts 169°
2026-05-07 15:47 38.95926 -90.53061 39127 ft 532 kts 169°
2026-05-07 15:48 38.89011 -90.49749 39114 ft 525 kts 173°
2026-05-07 15:48 38.82027 -90.47518 39111 ft 514 kts 179°
2026-05-07 15:49 38.75056 -90.45874 39119 ft 510 kts 181°
2026-05-07 15:49 38.68082 -90.44288 39104 ft 519 kts 178°
2026-05-07 15:49 38.64634 -90.42706 39092 ft 536 kts 167°
2026-05-07 15:50 38.61358 -90.40317 39104 ft 554 kts 156°
2026-05-07 15:50 38.55282 -90.34098 39177 ft 560 kts 151°
2026-05-07 15:51 38.48971 -90.28288 39151 ft 553 kts 157°
2026-05-07 15:51 38.42391 -90.23136 39132 ft 557 kts 160°
2026-05-07 15:52 38.35755 -90.18178 39150 ft 554 kts 160°
2026-05-07 15:52 38.29084 -90.13202 39139 ft 553 kts 160°
2026-05-07 15:53 38.22443 -90.08241 39137 ft 553 kts 160°
2026-05-07 15:53 38.15821 -90.03288 39153 ft 548 kts 160°
2026-05-07 15:54 38.09291 -89.98409 39139 ft 543 kts 161°
2026-05-07 15:54 38.02760 -89.93556 39148 ft 544 kts 161°
2026-05-07 15:55 37.96261 -89.88737 39152 ft 544 kts 161°
2026-05-07 15:55 37.89726 -89.83893 39144 ft 544 kts 161°
2026-05-07 15:56 37.83202 -89.79067 39156 ft 544 kts 161°
2026-05-07 15:56 37.76656 -89.74235 39146 ft 544 kts 161°
2026-05-07 15:57 37.70120 -89.69418 39158 ft 544 kts 161°
2026-05-07 15:57 37.63587 -89.64611 39158 ft 542 kts 161°
2026-05-07 15:58 37.57059 -89.59828 39149 ft 543 kts 162°
2026-05-07 15:58 37.50528 -89.55046 39162 ft 543 kts 162°
2026-05-07 15:59 37.43982 -89.50263 39155 ft 543 kts 162°
2026-05-07 15:59 37.37458 -89.45505 39155 ft 542 kts 162°
2026-05-07 16:00 37.30969 -89.40780 39165 ft 541 kts 163°
2026-05-07 16:00 37.24403 -89.36016 39153 ft 542 kts 163°
2026-05-07 16:01 37.17913 -89.31314 39161 ft 542 kts 163°
2026-05-07 16:01 37.11386 -89.26594 39158 ft 542 kts 163°
2026-05-07 16:02 37.04838 -89.21868 39155 ft 542 kts 163°
2026-05-07 16:02 36.98340 -89.17187 39165 ft 542 kts 163°
2026-05-07 16:03 36.91835 -89.12505 39149 ft 539 kts 164°
2026-05-07 16:03 36.85312 -89.07830 39152 ft 540 kts 164°
2026-05-07 16:04 36.78793 -89.03164 39150 ft 540 kts 164°
2026-05-07 16:04 36.72268 -88.98501 39138 ft 539 kts 164°
2026-05-07 16:05 36.65798 -88.93886 39142 ft 540 kts 165°
2026-05-07 16:05 36.59265 -88.89237 39129 ft 539 kts 165°
2026-05-07 16:06 36.52750 -88.84608 39130 ft 540 kts 165°
2026-05-07 16:06 36.46227 -88.79984 39136 ft 540 kts 165°
2026-05-07 16:07 36.39703 -88.75367 39123 ft 539 kts 165°
2026-05-07 16:07 36.33183 -88.70762 39131 ft 539 kts 165°
2026-05-07 16:08 36.26655 -88.66161 39124 ft 539 kts 165°
2026-05-07 16:08 36.20159 -88.61584 39114 ft 536 kts 165°
2026-05-07 16:09 36.13700 -88.57054 39128 ft 537 kts 166°
2026-05-07 16:09 36.07201 -88.52502 39116 ft 537 kts 166°
2026-05-07 16:10 36.01758 -88.48693 39115 ft 536 kts 166°
2026-05-07 16:10 35.95308 -88.44191 39125 ft 536 kts 166°
2026-05-07 16:11 35.88760 -88.39627 39117 ft 536 kts 166°
2026-05-07 16:11 35.82264 -88.35107 39125 ft 536 kts 166°
2026-05-07 16:12 35.75753 -88.30585 39115 ft 536 kts 166°
2026-05-07 16:12 35.69299 -88.26112 39106 ft 536 kts 166°
2026-05-07 16:13 35.62792 -88.21611 39117 ft 536 kts 166°
2026-05-07 16:13 35.56280 -88.17115 39104 ft 536 kts 166°
2026-05-07 16:14 35.49788 -88.12641 39096 ft 536 kts 166°
2026-05-07 16:14 35.43277 -88.08162 39107 ft 536 kts 166°
2026-05-07 16:15 35.36772 -88.03696 39098 ft 536 kts 166°
2026-05-07 16:15 35.30273 -87.99245 39097 ft 535 kts 166°
2026-05-07 16:16 35.23770 -87.94795 39109 ft 533 kts 166°
2026-05-07 16:16 35.17339 -87.90401 39093 ft 532 kts 166°
2026-05-07 16:17 35.10873 -87.85997 39106 ft 533 kts 166°
2026-05-07 16:17 35.04438 -87.81619 39097 ft 532 kts 166°
2026-05-07 16:18 34.97933 -87.77204 39098 ft 532 kts 166°
2026-05-07 16:18 34.91445 -87.72806 39104 ft 532 kts 165°
2026-05-07 16:19 34.84973 -87.68425 39092 ft 532 kts 165°
2026-05-07 16:19 34.78496 -87.64051 39103 ft 532 kts 165°
2026-05-07 16:20 34.72023 -87.59688 39099 ft 532 kts 165°
2026-05-07 16:20 34.65585 -87.55357 39092 ft 532 kts 165°
2026-05-07 16:21 34.59104 -87.51004 39108 ft 532 kts 165°
2026-05-07 16:21 34.52633 -87.46664 39102 ft 532 kts 165°
2026-05-07 16:22 34.46169 -87.42336 39099 ft 531 kts 165°
2026-05-07 16:22 34.39675 -87.38001 39106 ft 531 kts 165°
2026-05-07 16:23 34.33201 -87.33682 39092 ft 531 kts 165°
2026-05-07 16:23 34.26728 -87.29371 39095 ft 531 kts 165°
2026-05-07 16:24 34.20284 -87.25089 39085 ft 530 kts 165°
2026-05-07 16:24 34.13835 -87.20813 39070 ft 528 kts 165°
2026-05-07 16:25 34.07398 -87.16551 39084 ft 529 kts 165°
2026-05-07 16:25 34.00924 -87.12270 39084 ft 529 kts 165°
2026-05-07 16:26 33.94516 -87.08044 39073 ft 527 kts 165°
2026-05-07 16:26 33.88082 -87.03804 39084 ft 526 kts 165°
2026-05-07 16:27 33.81643 -86.99569 39074 ft 526 kts 165°
2026-05-07 16:27 33.75225 -86.95360 39066 ft 526 kts 165°
2026-05-07 16:28 33.68834 -86.91257 39066 ft 519 kts 167°
2026-05-07 16:28 33.62241 -86.88048 39058 ft 507 kts 173°
2026-05-07 16:29 33.55584 -86.85278 39057 ft 504 kts 175°
2026-05-07 16:29 33.48934 -86.82601 39072 ft 504 kts 175°
2026-05-07 16:30 33.42282 -86.79920 39065 ft 505 kts 174°
2026-05-07 16:30 33.35620 -86.77226 39055 ft 505 kts 174°
2026-05-07 16:31 33.29003 -86.74554 39064 ft 505 kts 174°
2026-05-07 16:31 33.22351 -86.71870 39047 ft 505 kts 174°
2026-05-07 16:32 33.15703 -86.69191 39049 ft 505 kts 174°
2026-05-07 16:32 33.09042 -86.66511 39053 ft 505 kts 174°
2026-05-07 16:33 33.02369 -86.63831 39040 ft 505 kts 174°
2026-05-07 16:33 32.95712 -86.61162 39050 ft 505 kts 174°
2026-05-07 16:34 32.89040 -86.58492 39041 ft 505 kts 174°
2026-05-07 16:34 32.82377 -86.55829 39033 ft 505 kts 173°
2026-05-07 16:35 32.75711 -86.53169 39039 ft 506 kts 173°
2026-05-07 16:35 32.69062 -86.50520 39025 ft 506 kts 173°
2026-05-07 16:36 32.62358 -86.47854 39017 ft 506 kts 173°
2026-05-07 16:36 32.55730 -86.45221 39016 ft 506 kts 173°
2026-05-07 16:37 32.48995 -86.42551 39002 ft 506 kts 173°
2026-05-07 16:37 32.42361 -86.39924 39000 ft 506 kts 173°
2026-05-07 16:38 32.35670 -86.37279 39008 ft 506 kts 173°
2026-05-07 16:38 32.28992 -86.34629 38998 ft 509 kts 171°
2026-05-07 16:38 32.25702 -86.32793 38976 ft 525 kts 161°
2026-05-07 16:39 32.22563 -86.30497 39074 ft 532 kts 157°
2026-05-07 16:39 32.16493 -86.25450 39039 ft 537 kts 153°
2026-05-07 16:40 32.10676 -86.19901 39024 ft 542 kts 149°
2026-05-07 16:40 32.04952 -86.14072 39029 ft 543 kts 148°
2026-05-07 16:41 31.99257 -86.08211 39034 ft 543 kts 148°
2026-05-07 16:41 31.93557 -86.02368 39022 ft 543 kts 148°
2026-05-07 16:42 31.87843 -85.96537 39033 ft 543 kts 148°
2026-05-07 16:42 31.82163 -85.90754 39028 ft 543 kts 148°
2026-05-07 16:43 31.76619 -85.84657 39029 ft 549 kts 143°
2026-05-07 16:43 31.71352 -85.78101 39025 ft 552 kts 141°
2026-05-07 16:44 31.66174 -85.71378 39014 ft 554 kts 140°
2026-05-07 16:44 31.61028 -85.64666 39024 ft 553 kts 140°
2026-05-07 16:45 31.55866 -85.57967 39034 ft 552 kts 140°
2026-05-07 16:45 31.50740 -85.51340 39048 ft 552 kts 140°
2026-05-07 16:46 31.45576 -85.44676 39053 ft 552 kts 140°
2026-05-07 16:46 31.40466 -85.38097 39068 ft 552 kts 140°
2026-05-07 16:47 31.35243 -85.31376 39079 ft 551 kts 139°
2026-05-07 16:47 31.30098 -85.24769 39061 ft 552 kts 139°
2026-05-07 16:48 31.24923 -85.18137 39051 ft 551 kts 139°
2026-05-07 16:48 31.19749 -85.11516 39056 ft 551 kts 139°
2026-05-07 16:49 31.14583 -85.04920 39042 ft 551 kts 139°
2026-05-07 16:49 31.09335 -84.98245 38999 ft 557 kts 139°
2026-05-07 16:50 31.04183 -84.91663 38999 ft 546 kts 139°
2026-05-07 16:50 30.99011 -84.85101 39035 ft 552 kts 139°
2026-05-07 16:51 30.93832 -84.78534 39057 ft 551 kts 139°
2026-05-07 16:51 30.88655 -84.71979 39072 ft 551 kts 139°
2026-05-07 16:52 30.83416 -84.65367 39009 ft 555 kts 139°
2026-05-07 16:52 30.78229 -84.58813 39064 ft 550 kts 139°
2026-05-07 16:53 30.73061 -84.52308 39068 ft 551 kts 139°
2026-05-07 16:53 30.67838 -84.45741 39104 ft 556 kts 138°
2026-05-07 16:54 30.62596 -84.39154 39099 ft 553 kts 138°
2026-05-07 16:54 30.57370 -84.32602 39080 ft 552 kts 138°
2026-05-07 16:55 30.52130 -84.26051 39071 ft 552 kts 138°
2026-05-07 16:55 30.46928 -84.19556 39069 ft 553 kts 138°
2026-05-07 16:56 30.41695 -84.13031 39079 ft 553 kts 138°
2026-05-07 16:56 30.32764 -84.04898 39069 ft 540 kts 153°
2026-05-07 16:57 30.27472 -84.01112 39073 ft 537 kts 156°
2026-05-07 16:57 30.21009 -83.96786 39079 ft 537 kts 156°
2026-05-07 16:58 30.14532 -83.92513 39072 ft 537 kts 157°
2026-05-07 16:58 30.08030 -83.88219 39080 ft 537 kts 156°
2026-05-07 16:59 30.01580 -83.83956 39076 ft 537 kts 156°
2026-05-07 16:59 29.95103 -83.79677 39071 ft 537 kts 156°
2026-05-07 17:00 29.88620 -83.75402 39084 ft 536 kts 156°
2026-05-07 17:00 29.82130 -83.71129 39075 ft 536 kts 156°
2026-05-07 17:01 29.75641 -83.66870 39080 ft 538 kts 156°
2026-05-07 17:01 29.69148 -83.62616 39088 ft 537 kts 156°
2026-05-07 17:02 29.62655 -83.58368 39079 ft 536 kts 156°
2026-05-07 17:02 29.56158 -83.54125 39093 ft 537 kts 156°
2026-05-07 17:03 29.49693 -83.49909 39084 ft 537 kts 156°
2026-05-07 17:03 29.43197 -83.45678 39084 ft 536 kts 156°
2026-05-07 17:04 29.36718 -83.41464 39094 ft 536 kts 156°
2026-05-07 17:04 29.30209 -83.37238 39080 ft 537 kts 156°
2026-05-07 17:05 29.23905 -83.32609 39101 ft 541 kts 151°
2026-05-07 17:05 29.17820 -83.27602 39080 ft 542 kts 148°
2026-05-07 17:06 29.11729 -83.22395 39090 ft 543 kts 148°
2026-05-07 17:06 29.05679 -83.17202 39090 ft 543 kts 148°
2026-05-07 17:07 28.99636 -83.12033 39082 ft 542 kts 148°
2026-05-07 17:07 28.93632 -83.06913 39093 ft 542 kts 148°
2026-05-07 17:08 28.87586 -83.01767 39079 ft 542 kts 148°
2026-05-07 17:08 28.81528 -82.96618 39090 ft 542 kts 148°
2026-05-07 17:09 28.75479 -82.91483 39097 ft 542 kts 148°
2026-05-07 17:09 28.69429 -82.86354 39085 ft 541 kts 148°
2026-05-07 17:10 28.63388 -82.81243 39096 ft 542 kts 148°
2026-05-07 17:10 28.57332 -82.76125 39089 ft 541 kts 148°
2026-05-07 17:11 28.51275 -82.71013 39082 ft 541 kts 148°
2026-05-07 17:11 28.45236 -82.65925 39091 ft 541 kts 148°
2026-05-07 17:12 28.39166 -82.60818 39077 ft 541 kts 148°
2026-05-07 17:12 28.33182 -82.55791 39084 ft 541 kts 148°
2026-05-07 17:13 28.27088 -82.50679 39087 ft 542 kts 148°
2026-05-07 17:13 28.21053 -82.45623 39076 ft 541 kts 147°
2026-05-07 17:14 28.14986 -82.40548 39086 ft 541 kts 147°
2026-05-07 17:14 28.08937 -82.35495 39083 ft 541 kts 148°
2026-05-07 17:15 28.02481 -82.31295 39009 ft 531 kts 160°
2026-05-07 17:15 27.99098 -82.29716 38342 ft 531 kts 163°
2026-05-07 17:15 27.95614 -82.28293 37726 ft 522 kts 166°
2026-05-07 17:16 27.92224 -82.27036 37024 ft 516 kts 167°
2026-05-07 17:16 27.88806 -82.25842 36356 ft 510 kts 168°
2026-05-07 17:16 27.85417 -82.24691 35726 ft 504 kts 168°
2026-05-07 17:16 27.82078 -82.23567 35101 ft 501 kts 168°
2026-05-07 17:17 27.78698 -82.22434 34472 ft 506 kts 168°
2026-05-07 17:17 27.75348 -82.21305 33834 ft 499 kts 168°
2026-05-07 17:17 27.72058 -82.20191 33198 ft 492 kts 168°
2026-05-07 17:17 27.68807 -82.19087 32579 ft 485 kts 168°
2026-05-07 17:18 27.65598 -82.17998 31970 ft 478 kts 168°
2026-05-07 17:18 27.62465 -82.16941 31377 ft 472 kts 169°
2026-05-07 17:18 27.59336 -82.15900 30786 ft 467 kts 169°
2026-05-07 17:18 27.56234 -82.14876 30201 ft 462 kts 169°
2026-05-07 17:19 27.53163 -82.13865 29620 ft 456 kts 169°
2026-05-07 17:19 27.50144 -82.12874 29048 ft 449 kts 169°
2026-05-07 17:19 27.47184 -82.11901 28485 ft 443 kts 169°
2026-05-07 17:19 27.44219 -82.10927 27925 ft 437 kts 169°
2026-05-07 17:20 27.41335 -82.09981 27381 ft 432 kts 169°
2026-05-07 17:20 27.38455 -82.09037 26835 ft 428 kts 169°
2026-05-07 17:20 27.35611 -82.08103 26260 ft 426 kts 169°
2026-05-07 17:20 27.32747 -82.07154 25616 ft 426 kts 168°
2026-05-07 17:21 27.29941 -82.06215 25285 ft 416 kts 168°
2026-05-07 17:21 27.27194 -82.05293 25065 ft 408 kts 168°
2026-05-07 17:21 27.24461 -82.04381 24974 ft 415 kts 168°
2026-05-07 17:21 27.21676 -82.03456 24910 ft 421 kts 168°
2026-05-07 17:22 27.18863 -82.02517 24833 ft 418 kts 168°
2026-05-07 17:22 27.16077 -82.01585 24757 ft 419 kts 168°
2026-05-07 17:22 27.13318 -82.00665 24685 ft 419 kts 168°
2026-05-07 17:22 27.10538 -81.99736 24610 ft 418 kts 168°
2026-05-07 17:23 27.07729 -81.98786 24531 ft 421 kts 166°
2026-05-07 17:23 27.05053 -81.97423 24399 ft 426 kts 155°
2026-05-07 17:23 27.02661 -81.95443 24334 ft 430 kts 142°
2026-05-07 17:23 27.00543 -81.93041 24313 ft 432 kts 135°
2026-05-07 17:24 26.98566 -81.90499 24177 ft 433 kts 133°
2026-05-07 17:24 26.96654 -81.87922 23908 ft 431 kts 131°
2026-05-07 17:24 26.94745 -81.85323 23581 ft 428 kts 131°
2026-05-07 17:24 26.92861 -81.82767 23214 ft 425 kts 131°
2026-05-07 17:25 26.90981 -81.80228 22822 ft 421 kts 131°
2026-05-07 17:25 26.89114 -81.77719 22417 ft 418 kts 131°
2026-05-07 17:25 26.87250 -81.75225 21995 ft 415 kts 131°
2026-05-07 17:25 26.85398 -81.72773 21570 ft 411 kts 132°
2026-05-07 17:26 26.83571 -81.70366 21211 ft 406 kts 132°
2026-05-07 17:26 26.81754 -81.67980 20876 ft 401 kts 132°
2026-05-07 17:26 26.80412 -81.66219 20648 ft 399 kts 131°
2026-05-07 17:26 26.79220 -81.64656 20452 ft 397 kts 131°
2026-05-07 17:27 26.77395 -81.62263 20158 ft 399 kts 131°
2026-05-07 17:27 26.75596 -81.59907 19868 ft 397 kts 131°
2026-05-07 17:27 26.73807 -81.57562 19582 ft 395 kts 131°
2026-05-07 17:27 26.72020 -81.55223 19311 ft 392 kts 131°
2026-05-07 17:28 26.70372 -81.52815 19012 ft 393 kts 123°
2026-05-07 17:28 26.69420 -81.50010 18661 ft 389 kts 102°
2026-05-07 17:28 26.69267 -81.47001 18482 ft 380 kts 88°
2026-05-07 17:28 26.69416 -81.44065 18112 ft 384 kts 84°
2026-05-07 17:29 26.69734 -81.41117 17717 ft 379 kts 80°
2026-05-07 17:29 26.70191 -81.38242 17237 ft 373 kts 77°
2026-05-07 17:29 26.70736 -81.35423 16792 ft 367 kts 76°
2026-05-07 17:29 26.71321 -81.32660 16346 ft 363 kts 75°
2026-05-07 17:30 26.71923 -81.29929 15914 ft 361 kts 75°
2026-05-07 17:30 26.72534 -81.27204 15484 ft 361 kts 75°
2026-05-07 17:30 26.73148 -81.24483 15051 ft 359 kts 75°
2026-05-07 17:30 26.73767 -81.21799 14610 ft 353 kts 74°
2026-05-07 17:31 26.74372 -81.19204 14266 ft 344 kts 74°
2026-05-07 17:31 26.74975 -81.16617 13965 ft 334 kts 75°
2026-05-07 17:31 26.75545 -81.14169 13716 ft 330 kts 75°
2026-05-07 17:31 26.76129 -81.11665 13486 ft 334 kts 75°
2026-05-07 17:32 26.76718 -81.09131 13255 ft 337 kts 75°
2026-05-07 17:32 26.77306 -81.06601 13021 ft 335 kts 75°
2026-05-07 17:32 26.77887 -81.04097 12840 ft 329 kts 75°
2026-05-07 17:32 26.78266 -81.02461 12754 ft 328 kts 75°
2026-05-07 17:33 26.78876 -80.99087 12511 ft 332 kts 83°
2026-05-07 17:33 26.78994 -80.96522 12289 ft 330 kts 88°
2026-05-07 17:33 26.79060 -80.93985 11933 ft 323 kts 88°
2026-05-07 17:33 26.79129 -80.91520 11521 ft 318 kts 88°
2026-05-07 17:34 26.79209 -80.89083 11093 ft 308 kts 88°
2026-05-07 17:34 26.79297 -80.86734 10701 ft 297 kts 88°
2026-05-07 17:34 26.79388 -80.84457 10300 ft 287 kts 88°
2026-05-07 17:34 26.79478 -80.82280 9976 ft 273 kts 88°
2026-05-07 17:35 26.79562 -80.80199 9623 ft 267 kts 88°
2026-05-07 17:35 26.79645 -80.78074 9275 ft 276 kts 88°
2026-05-07 17:35 26.79601 -80.75931 8898 ft 277 kts 96°
2026-05-07 17:35 26.79021 -80.73897 8670 ft 273 kts 109°
2026-05-07 17:36 26.78344 -80.71912 8398 ft 272 kts 111°
2026-05-07 17:36 26.77663 -80.69943 8108 ft 271 kts 111°
2026-05-07 17:36 26.76994 -80.67982 7813 ft 269 kts 111°
2026-05-07 17:36 26.76333 -80.66022 7526 ft 268 kts 111°
2026-05-07 17:37 26.75679 -80.64069 7234 ft 266 kts 111°
2026-05-07 17:37 26.75037 -80.62142 6942 ft 265 kts 111°
2026-05-07 17:37 26.74395 -80.60214 6660 ft 263 kts 111°
2026-05-07 17:37 26.73753 -80.58299 6380 ft 259 kts 111°
2026-05-07 17:38 26.73123 -80.56489 6079 ft 247 kts 112°
2026-05-07 17:38 26.72505 -80.54721 5796 ft 236 kts 112°
2026-05-07 17:38 26.71920 -80.53051 5598 ft 224 kts 112°
2026-05-07 17:38 26.71374 -80.51492 5420 ft 214 kts 112°
2026-05-07 17:39 26.70833 -80.49944 5252 ft 213 kts 113°
2026-05-07 17:39 26.70349 -80.48387 5023 ft 210 kts 108°
2026-05-07 17:39 26.70162 -80.46807 4880 ft 203 kts 99°
2026-05-07 17:39 26.70006 -80.45247 4712 ft 201 kts 97°
2026-05-07 17:40 26.69886 -80.43697 4534 ft 200 kts 96°
2026-05-07 17:40 26.69765 -80.42156 4373 ft 199 kts 97°
2026-05-07 17:40 26.69629 -80.40615 4195 ft 198 kts 97°
2026-05-07 17:40 26.69511 -80.39081 4027 ft 197 kts 96°
2026-05-07 17:41 26.69427 -80.37555 3862 ft 197 kts 95°
2026-05-07 17:41 26.69386 -80.36033 3696 ft 196 kts 93°
2026-05-07 17:41 26.69357 -80.34509 3524 ft 193 kts 93°
2026-05-07 17:41 26.69318 -80.33021 3353 ft 190 kts 94°
2026-05-07 17:42 26.69253 -80.31556 3153 ft 187 kts 95°
2026-05-07 17:42 26.69164 -80.30129 3025 ft 185 kts 96°
2026-05-07 17:42 26.69078 -80.28705 3008 ft 184 kts 96°
2026-05-07 17:42 26.69009 -80.27272 2922 ft 184 kts 95°
2026-05-07 17:43 26.68968 -80.25848 2718 ft 184 kts 94°
2026-05-07 17:43 26.68927 -80.24421 2464 ft 183 kts 94°
2026-05-07 17:43 26.68895 -80.23569 2311 ft 181 kts 94°
2026-05-07 17:43 26.68855 -80.22736 2168 ft 180 kts 95°
2026-05-07 17:44 26.68802 -80.21789 2009 ft 180 kts 95°
2026-05-07 17:44 26.68725 -80.20383 1770 ft 180 kts 95°
2026-05-07 17:44 26.68663 -80.18998 1528 ft 179 kts 95°
2026-05-07 17:44 26.68615 -80.17609 1295 ft 178 kts 94°
2026-05-07 17:45 26.68564 -80.16230 1056 ft 177 kts 94°
2026-05-07 17:45 26.68501 -80.14862 823 ft 176 kts 94°
2026-05-07 17:45 26.68436 -80.13531 588 ft 166 kts 94°
2026-05-07 17:45 26.68381 -80.12299 378 ft 153 kts 93°
2026-05-07 17:46 26.68348 -80.11519 246 ft 150 kts 93°
2026-05-07 17:46 26.68301 -80.10370 63 ft 145 kts 92°
2026-05-07 17:46 26.68253 -80.09296 33 ft 122 kts 93°
2026-05-07 17:46 26.68212 -80.08436 32 ft 68 kts 93°
2026-05-07 17:47 26.68228 -80.08177 32 ft 17 kts 52°
2026-05-07 17:47 26.68261 -80.08160 32 ft 1 kts
2026-05-07 17:47 26.68263 -80.08161 32 ft 1 kts 357°
2026-05-07 17:47 26.68284 -80.08172 32 ft 15 kts 318°
2026-05-07 17:48 26.68321 -80.08294 32 ft 17 kts 273°
2026-05-07 17:48 26.68327 -80.08425 32 ft 14 kts 271°
2026-05-07 17:48 26.68329 -80.08532 32 ft 12 kts 273°
2026-05-07 17:48 26.68363 -80.08609 32 ft 13 kts 337°
2026-05-07 17:49 26.68441 -80.08645 32 ft 12 kts 328°
2026-05-07 17:49 26.68495 -80.08690 32 ft 8 kts 319°
2026-05-07 17:49 26.68541 -80.08739 32 ft 8 kts 319°
2026-05-07 17:49 26.68597 -80.08775 32 ft 9 kts 332°
2026-05-07 17:50 26.68635 -80.08796 32 ft 5 kts 339°
2026-05-07 17:50 26.68664 -80.08822 32 ft 5 kts 309°
2026-05-07 17:50 26.68678 -80.08859 32 ft 2 kts 282°
2026-05-07 17:50 26.68680 -80.08874 32 ft 0 kts 278°
2026-05-07 17:51 26.68684 -80.08883 32 ft 0 kts 273°